Date String (YYYY-MM-DD hh:mm:ss) UTC,Instrument flags,Ambient pressure (hPa),Sample flow (lpm),Bypass flow (lpm),Sample temperature (°C),Ambient temperature (°C),ASC tube jacket temperature (°C),LED temperature (°C),Box temperature (°C),Sample RH (%),Span deviation,Mass concentration (μg/m³),Mass concentration (μg/m³),Mass concentration (μg/m³)
DateTimeUTC,F1_M11,P_M11,Q1_M11,Q2_M11,T1_M11,T2_M11,T3_M11,T4_M11,T5_M11,U1_M11,ZSPAN_M11,X2_M11,X0_M11,X1_M11
2023-01-24 10:00:00,,0823.2,4.99,0.00,22.3,20.0,00.0,31.2,23.8,12.9,-001.6,0017.86,0020.16,0017.50
2023-01-24 10:01:00,,0823.3,4.98,0.00,22.2,19.8,00.0,31.2,23.6,13.0,-001.6,0017.82,0020.11,0017.46
2023-01-24 10:02:00,,0823.2,5.02,0.00,22.1,19.5,00.0,31.1,23.5,13.0,-001.5,0017.80,0020.11,0017.44
2023-01-24 10:03:00,,0823.3,5.01,0.00,22.0,19.4,00.0,31.1,23.4,13.1,-001.5,0017.79,0020.07,0017.43
2023-01-24 10:04:00,,0823.3,4.99,0.00,21.9,19.2,00.0,31.0,23.3,13.0,-001.5,0017.72,0019.91,0017.36
2023-01-24 10:05:00,,0823.2,4.99,0.00,21.8,19.3,00.0,31.0,23.2,13.0,-001.6,0017.63,0019.79,0017.27
2023-01-24 10:06:00,,0823.3,5.01,0.00,21.9,20.5,00.0,30.9,23.5,13.0,-001.5,0017.52,0019.55,0017.20
2023-01-24 10:07:00,,0823.2,4.99,0.00,22.0,21.7,00.0,30.9,23.8,12.9,-001.6,0017.39,0019.80,0017.06
2023-01-24 10:08:00,,0823.2,4.99,0.00,22.1,22.0,00.0,30.9,23.9,12.8,-001.7,0017.29,0019.97,0016.96
2023-01-24 10:09:00,,0823.2,4.99,0.00,22.0,21.2,00.0,30.9,23.8,12.8,-001.9,0017.18,0019.83,0016.88
2023-01-24 10:10:00,,0823.2,5.01,0.00,22.0,20.5,00.0,30.9,23.5,12.8,-002.1,0017.10,0019.78,0016.79
2023-01-24 10:11:00,,0823.2,4.99,0.00,21.9,19.9,00.0,30.9,23.3,12.8,-002.2,0017.06,0019.78,0016.74
2023-01-24 10:12:00,,0823.2,4.99,0.00,21.8,19.5,00.0,30.8,23.1,12.9,-002.2,0017.08,0019.86,0016.74
2023-01-24 10:13:00,,0823.2,4.98,0.00,21.7,19.1,00.0,30.8,23.0,12.9,-002.2,0017.05,0019.94,0016.71
2023-01-24 10:14:00,,0823.2,5.00,0.00,21.6,18.9,00.0,30.7,22.9,12.9,-002.3,0016.98,0019.92,0016.61
2023-01-24 10:15:00,,0823.2,5.00,0.00,21.5,18.9,00.0,30.7,22.8,12.9,-002.2,0016.91,0019.85,0016.55
2023-01-24 10:16:00,,0823.1,5.03,0.00,21.5,20.1,00.0,30.6,23.1,12.9,-002.1,0016.88,0019.81,0016.52
2023-01-24 10:17:00,,0823.1,5.00,0.00,21.6,21.4,00.0,30.6,23.4,12.8,-002.2,0016.83,0019.75,0016.47
2023-01-24 10:18:00,,0823.1,4.99,0.00,21.8,22.3,00.0,30.6,23.7,12.7,-002.1,0016.76,0019.29,0016.43
2023-01-24 10:19:00,,0823.1,4.98,0.00,21.9,22.0,00.0,30.6,23.7,12.6,-002.1,0016.67,0018.92,0016.37
2023-01-24 10:20:00,,0823.1,5.01,0.00,21.8,21.1,00.0,30.7,23.5,12.7,-002.0,0016.63,0018.96,0016.30
2023-01-24 10:21:00,,0823.1,5.01,0.00,21.7,20.4,00.0,30.7,23.3,12.7,-002.1,0016.64,0019.00,0016.29
2023-01-24 10:22:00,,0823.1,5.00,0.00,21.7,19.8,00.0,30.6,23.1,12.8,-002.1,0016.59,0018.90,0016.26
2023-01-24 10:23:00,,0823.1,5.01,0.00,21.6,19.4,00.0,30.6,23.0,12.8,-002.0,0016.51,0018.77,0016.20
2023-01-24 10:24:00,,0823.1,5.01,0.00,21.5,19.1,00.0,30.6,22.8,12.8,-001.9,0016.48,0018.68,0016.18
2023-01-24 10:25:00,,0823.2,5.00,0.00,21.4,18.9,00.0,30.5,22.7,12.9,-001.9,0016.49,0018.68,0016.22
2023-01-24 10:26:00,,0823.1,5.02,0.00,21.3,18.7,00.0,30.5,22.6,13.0,-002.1,0016.50,0018.74,0016.24
2023-01-24 10:27:00,,0823.2,5.01,0.00,21.3,19.7,00.0,30.4,22.8,13.0,-002.2,0016.49,0018.72,0016.23
2023-01-24 10:28:00,,0823.1,4.99,0.00,21.4,21.1,00.0,30.4,23.1,12.9,-002.3,0016.51,0018.76,0016.24
2023-01-24 10:29:00,,0823.1,5.00,0.00,21.6,22.1,00.0,30.4,23.4,12.9,-002.5,0016.55,0018.81,0016.27
2023-01-24 10:30:00,,0823.1,5.00,0.00,21.7,22.1,00.0,30.4,23.5,12.8,-002.6,0016.60,0018.88,0016.30
2023-01-24 10:31:00,,0823.1,5.00,0.00,21.7,21.2,00.0,30.5,23.4,12.8,-002.5,0016.64,0019.01,0016.37
2023-01-24 10:32:00,,0823.1,5.00,0.00,21.6,20.5,00.0,30.5,23.2,12.9,-002.3,0016.67,0019.25,0016.40
2023-01-24 10:33:00,,0823.1,4.99,0.00,21.5,19.9,00.0,30.4,23.1,13.0,-002.3,0016.75,0019.34,0016.48
2023-01-24 10:34:00,,0823.1,5.01,0.00,21.5,19.4,00.0,30.4,22.9,13.1,-002.3,0016.81,0019.40,0016.54
2023-01-24 10:35:00,,0823.2,4.99,0.00,21.4,19.1,00.0,30.4,22.8,13.1,-002.2,0016.86,0019.39,0016.59
2023-01-24 10:36:00,,0823.2,4.99,0.00,21.3,18.8,00.0,30.3,22.6,13.2,-002.3,0016.95,0019.50,0016.66
2023-01-24 10:37:00,,0823.2,5.03,0.00,21.2,18.6,00.0,30.3,22.5,13.2,-002.1,0017.08,0019.62,0016.76
2023-01-24 10:38:00,,0823.2,5.01,0.00,21.2,18.7,00.0,30.3,22.5,13.3,-002.1,0017.21,0019.77,0016.87
2023-01-24 10:39:00,,0823.4,5.02,0.00,21.2,20.1,00.0,30.2,22.8,13.2,-002.0,0017.32,0019.99,0016.97
2023-01-24 10:40:00,,0823.4,4.99,0.00,21.3,21.4,00.0,30.2,23.1,13.1,-001.8,0017.40,0020.11,0017.05
2023-01-24 10:41:00,,0823.4,5.00,0.00,21.5,21.8,00.0,30.2,23.3,13.1,-001.9,0017.50,0020.21,0017.17
2023-01-24 10:42:00,,0823.4,5.00,0.00,21.5,21.2,00.0,30.3,23.2,13.1,-002.0,0017.56,0020.13,0017.24
2023-01-24 10:43:00,,0823.3,5.00,0.00,21.5,20.5,00.0,30.3,23.1,13.1,-002.1,0017.63,0019.96,0017.30
2023-01-24 10:44:00,,0823.3,5.00,0.00,21.4,20.0,00.0,30.3,22.9,13.1,-001.9,0017.72,0020.09,0017.37
2023-01-24 10:45:00,,0823.3,5.00,0.00,21.3,19.6,00.0,30.3,22.8,13.1,-002.0,0017.81,0020.20,0017.46
2023-01-24 10:46:00,,0823.3,5.00,0.00,21.3,19.3,00.0,30.2,22.7,13.1,-001.9,0017.89,0020.34,0017.55
2023-01-24 10:47:00,,0823.2,5.00,0.00,21.2,19.1,00.0,30.2,22.6,13.1,-001.7,0017.93,0020.44,0017.60
2023-01-24 10:48:00,,0823.3,5.01,0.00,21.2,18.9,00.0,30.2,22.6,13.2,-001.6,0017.98,0020.48,0017.65
2023-01-24 10:49:00,,0823.2,5.02,0.00,21.1,19.3,00.0,30.1,22.6,13.2,-001.7,0018.02,0020.52,0017.71
2023-01-24 10:50:00,,0823.2,4.99,0.00,21.3,20.8,00.0,30.1,23.0,13.1,-001.7,0018.06,0020.45,0017.77
2023-01-24 10:51:00,,0823.2,5.00,0.00,21.4,21.8,00.0,30.1,23.3,13.1,-001.6,0018.12,0020.48,0017.83
2023-01-24 10:52:00,,0823.2,5.00,0.00,21.5,21.9,00.0,30.2,23.4,13.0,-001.5,0018.14,0020.58,0017.85
2023-01-24 10:53:00,,0823.2,4.99,0.00,21.5,21.3,00.0,30.2,23.4,13.0,-001.4,0018.18,0020.63,0017.89
2023-01-24 10:54:00,,0823.3,5.03,0.00,21.5,20.7,00.0,30.2,23.3,13.0,-001.6,0018.20,0020.62,0017.93
2023-01-24 10:55:00,,0823.2,4.99,0.00,21.5,20.3,00.0,30.2,23.2,13.0,-001.9,0018.25,0020.71,0017.98
2023-01-24 10:56:00,,0823.2,5.00,0.00,21.5,20.0,00.0,30.2,23.1,13.0,-002.0,0018.30,0020.79,0018.02
2023-01-24 10:57:00,,0823.2,5.01,0.00,21.4,19.8,00.0,30.2,23.0,13.1,-002.1,0018.32,0020.79,0018.03
2023-01-24 10:58:00,,0823.2,4.99,0.00,21.4,19.5,00.0,30.2,22.9,13.1,-002.2,0018.34,0020.72,0018.06
2023-01-24 10:59:00,,0823.2,5.04,0.00,21.4,19.3,00.0,30.2,22.9,13.1,-002.3,0018.35,0020.73,0018.09
